Location: Brno
(49.2000°N, 16.6330°E)
Time: 18:08:03
(UTC+02:00)

Meteor 1-4 Rocket - Visible Passes

Search period start: 21 September 2014 00:00
Search period end: 01 October 2014 00:00
Orbit: 471 x 535 km, 81.2° (Epoch: 21 September)

Date Brightness Start Highest point End Pass type
(mag) Time Alt. Az. Time Alt. Az. Time Alt. Az.
21 Sep 5.7 20:03:18 10° NW 20:06:16 21° W 20:09:12 10° SW visible
22 Sep 5.3 19:43:59 10° NW 19:47:17 26° W 19:50:33 10° SSW visible
23 Sep 4.8 19:24:44 10° NNW 19:28:18 33° W 19:31:48 10° SSW visible
28 Sep 6.5 19:26:21 10° WNW 19:27:58 12° W 19:29:34 10° WSW visible
29 Sep 6.3 06:07:14 10° ESE 06:09:27 15° E 06:11:40 10° NE visible
29 Sep 6.3 19:06:36 10° NW 19:08:58 16° W 19:11:19 10° SW visible
30 Sep 6.6 05:49:08 10° ESE 05:50:27 12° E 05:51:47 10° ENE visible
